FW9486 Weather Reports


Display with metric or nautical units.
time (UTC)temp
F
wind
direction
speed
MPH
gust
MPH
rain 1hr
in
rain 24hr
in
rain mn
in
humidity
%
barometer
mb
20260905230042 70 344 7.0 12.0 0.00 0.01 0.01 33 1012.6
20260905224546 70 305 6.0 15.0 0.00 0.01 0.01 34 1012.4
20260905223041 70 229 4.0 14.0 0.00 0.01 0.01 32 1012.5
20260905221547 70 304 6.0 16.0 0.00 0.01 0.01 33 1012.6
20260905220045 70 259 6.0 14.0 0.00 0.01 0.01 32 1012.6
20260905214549 71 262 5.0 16.0 0.00 0.01 0.01 30 1012.5
20260905213047 70 269 7.0 15.0 0.00 0.01 0.01 30 1012.7
20260905211545 70 338 4.0 14.0 0.00 0.01 0.01 31 1012.9
20260905210042 71 191 4.0 13.0 0.00 0.01 0.01 34 1012.9
20260905204546 71 287 2.0 5.0 0.00 0.01 0.01 30 1012.8
20260905203054 70 82 1.0 4.0 0.00 0.01 0.01 34 1012.9
20260905201545 68 181 2.0 7.0 0.00 0.01 0.01 35 1012.9
20260905200053 68 137 0.0 4.0 0.00 0.01 0.01 35 1013.1
20260905194547 66 86 1.0 7.0 0.00 0.01 0.01 40 1013.2
20260905193104 66 0 2.0 4.0 0.00 0.01 0.01 40 1013.4
20260905191551 63 167 1.0 4.0 0.00 0.01 0.01 50 1013.4
20260905190050 62 133 1.0 4.0 0.00 0.01 0.01 54 1013.7
20260905184545 60 123 1.0 3.0 0.00 0.01 0.01 64 1013.9
20260905183050 58 169 2.0 4.0 0.00 0.01 0.01 67 1014.1
20260905181544 57 165 0.0 3.0 0.00 0.01 0.01 75 1014.4
20260905180058 54 68 1.0 3.0 0.00 0.01 0.01 80 1014.6
20260905174549 51 0 1.0 5.0 0.00 0.01 0.01 84 1014.7
20260905173041 49 131 1.0 3.0 0.00 0.01 0.01 92 1014.8
20260905171550 47 110 1.0 3.0 0.00 0.01 0.01 96 1014.8
20260905170052 44 122 0.0 3.0 0.00 0.01 0.01 96 1014.9
20260905164546 44 88 0.0 2.0 0.00 0.01 0.01 96 1014.9
20260905163052 43 136 1.0 2.0 0.00 0.01 0.01 96 1014.9
20260905161547 42 0 0.0 1.0 0.00 0.01 0.01 96 1014.8
20260905160051 41 0 0.0 1.0 0.00 0.01 0.01 96 1014.9
20260905154556 41 0 0.0 1.0 0.00 0.01 0.01 96 1015.0
20260905153047 41 0 0.0 1.0 0.00 0.01 0.01 96 1015.2
20260905151545 40 0 0.0 1.0 0.00 0.01 0.01 96 1015.2
20260905150049 39 0 0.0 2.0 0.00 0.01 0.01 96 1015.3
20260905144552 39 326 0.0 1.0 0.00 0.01 0.01 96 1015.3
20260905143052 39 0 0.0 1.0 0.00 0.01 0.01 96 1015.2
20260905141550 38 274 0.0 1.0 0.00 0.01 0.01 96 1015.1
20260905140050 38 271 1.0 2.0 0.00 0.01 0.01 96 1015.1
20260905134547 39 0 0.0 0.0 0.00 0.01 0.01 96 1014.9
20260905133052 39 0 0.0 0.0 0.00 0.01 0.01 96 1014.9
20260905131552 38 0 0.0 0.0 0.01 0.01 0.01 96 1014.6
20260905130042 38 0 0.0 0.0 0.01 0.01 0.01 96 1014.5
20260905124543 38 0 0.0 0.0 0.01 0.01 0.01 96 1014.4
20260905123042 38 0 0.0 0.0 0.01 0.01 0.01 96 1014.5
20260905121548 38 0 0.0 0.0 0.00 0.00 0.00 96 1014.5
20260905120049 38 0 0.0 0.0 0.00 0.00 0.00 96 1014.5
20260905114545 38 0 0.0 0.0 0.00 0.00 0.00 96 1014.6
20260905113048 38 0 0.0 1.0 0.00 0.00 0.00 95 1014.4
20260905111609 38 0 0.0 0.0 0.00 0.00 0.00 95 1014.3
20260905110045 38 0 0.0 1.0 0.00 0.00 0.00 95 1014.4
20260905104539 39 0 0.0 0.0 0.00 0.00 0.00 95 1014.1
20260905103049 39 0 0.0 0.0 0.00 0.00 0.00 96 1013.8
20260905101546 39 0 0.0 0.0 0.00 0.00 0.00 95 1013.5
20260905100052 39 0 0.0 0.0 0.00 0.00 0.00 95 1013.5
20260905094542 39 0 0.0 0.0 0.00 0.00 0.00 95 1013.4
20260905093053 40 0 0.0 0.0 0.00 0.00 0.00 94 1013.5
20260905091547 40 0 0.0 0.0 0.00 0.00 0.00 94 1013.5
20260905090050 42 0 0.0 0.0 0.00 0.00 0.00 95 1013.2
20260905084551 41 0 0.0 0.0 0.00 0.05 0.00 95 1013.2
20260905083045 41 0 0.0 0.0 0.00 0.05 0.00 94 1013.3
20260905081542 41 0 0.0 0.0 0.00 0.05 0.00 95 1013.6
20260905080048 41 0 0.0 0.0 0.00 0.05 0.00 95 1013.3
20260905074548 41 0 0.0 0.0 0.00 0.12 0.00 94 1013.3
20260905073047 41 0 0.0 0.0 0.00 0.12 0.00 94 1013.0
20260905071547 42 0 0.0 0.0 0.00 0.12 0.00 95 1012.9
20260905070043 42 0 0.0 1.0 0.00 0.12 0.00 94 1012.8
20260905064550 42 0 0.0 1.0 0.00 0.25 0.00 93 1012.8
20260905063059 42 0 0.0 0.0 0.00 0.25 0.00 91 1012.6
20260905061554 44 0 0.0 0.0 0.00 0.25 0.00 93 1012.6
20260905060044 45 0 0.0 0.0 0.00 0.25 0.00 93 1012.4
20260905054541 44 0 0.0 1.0 0.00 0.31 0.25 92 1012.1
20260905053057 45 0 0.0 0.0 0.00 0.31 0.25 91 1012.4
20260905051545 45 0 0.0 1.0 0.00 0.31 0.25 91 1012.6
20260905050047 45 0 0.0 1.0 0.00 0.31 0.25 90 1012.8
20260905044541 45 0 0.0 0.0 0.00 0.33 0.25 88 1012.3
20260905043048 46 0 0.0 1.0 0.00 0.33 0.25 88 1012.4
20260905041550 47 0 0.0 0.0 0.00 0.33 0.25 86 1012.6
20260905040050 48 0 0.0 0.0 0.00 0.33 0.25 85 1012.9
20260905034548 48 0 0.0 0.0 0.00 0.35 0.25 83 1012.9
20260905033044 49 0 0.0 0.0 0.00 0.35 0.25 82 1012.9
20260905031541 49 0 0.0 1.0 0.00 0.35 0.25 81 1012.4
20260905030058 50 0 0.0 0.0 0.00 0.35 0.25 80 1012.7
20260905024546 51 0 0.0 0.0 0.00 0.36 0.25 77 1012.6
20260905023043 51 28 0.0 1.0 0.00 0.36 0.25 79 1012.6
20260905021541 52 0 0.0 0.0 0.00 0.36 0.25 75 1012.5
20260905020100 54 0 0.0 0.0 0.00 0.36 0.25 71 1012.4
20260905014548 55 0 0.0 0.0 0.00 0.42 0.25 67 1012.6
20260905013043 56 0 0.0 2.0 0.00 0.42 0.25 65 1012.5
20260905011549 56 0 0.0 0.0 0.00 0.42 0.25 65 1012.7
20260905010056 55 0 0.0 0.0 0.00 0.42 0.25 67 1012.7
20260905004606 56 0 0.0 0.0 0.00 0.44 0.25 67 1012.5
20260905003042 56 0 0.0 3.0 0.00 0.44 0.25 65 1012.4
20260905001547 57 0 0.0 2.0 0.00 0.44 0.25 63 1012.7
20260905000047 56 0 0.0 2.0 0.00 0.44 0.25 64 1012.5
20260904234548 56 304 0.0 5.0 0.00 0.44 0.25 64 1012.6
20260904233050 56 0 0.0 5.0 0.00 0.44 0.25 63 1012.5
20260904231541 56 308 0.0 2.0 0.00 0.44 0.25 63 1012.6